Theta_e
328 337 340 343 344 343 335 336 337 339 339 338 340 343 342 342 346 343 339 342 344 332 322 322 322 322 323 324 325 327 330 331 333 332 331 331 332 335 337 336 335 328 328 330 331 331 331 329 331
329 338 340 340 342 337 338 337 339 339 340 340 341 342 339 339 340 339 341 341 344 336 323 323 322 322 323 325 326 329 331 332 332 331 333 333 333 330 329 330 325 320 318 317 317 317 317 319 321
331 337 339 339 339 339 337 337 338 337 337 340 339 341 339 338 338 338 339 340 345 343 337 323 323 323 324 325 328 330 331 332 331 335 335 332 331 324 324 320 318 318 318 317 316 315 314 314 315
337 335 337 339 340 338 336 337 337 337 336 337 343 342 340 342 339 337 338 340 342 342 342 326 323 323 324 326 329 330 332 331 333 334 332 327 322 319 318 318 319 320 320 319 318 317 316 314 314
331 336 341 340 338 338 336 337 336 336 335 338 339 342 341 343 340 339 340 340 341 345 344 322 322 323 325 327 329 331 331 332 334 330 326 320 319 319 319 320 321 321 321 321 321 321 321 319 316
331 335 340 338 337 339 338 337 336 335 336 336 336 339 339 341 341 340 340 340 341 344 343 324 323 324 325 327 329 332 331 332 322 321 322 320 320 321 322 323 326 323 323 323 324 323 323 322 319
333 336 337 339 340 337 338 337 335 334 334 338 338 341 342 342 341 339 340 340 339 342 342 341 324 325 327 329 332 332 332 324 319 319 320 321 323 330 331 331 329 328 328 327 325 324 324 324 324
332 334 336 336 338 338 337 337 336 332 335 338 335 338 340 341 341 339 339 339 339 339 344 342 338 331 331 330 332 331 332 324 322 321 322 323 333 333 334 331 330 330 330 328 326 327 326 326 324
331 334 336 336 335 337 336 337 335 334 335 333 336 335 337 340 339 338 338 338 338 336 338 341 341 342 340 342 342 339 332 329 324 328 331 330 336 334 334 332 331 330 329 326 326 323 323 325 326
332 333 334 335 335 338 338 336 336 335 335 336 337 338 338 340 339 338 338 338 337 337 337 338 339 341 339 342 343 340 338 337 337 341 340 333 333 331 333 333 331 331 325 322 321 321 320 323 326
331 331 331 331 331 335 338 336 336 335 336 334 336 340 339 339 339 339 338 337 338 339 339 341 339 339 341 342 342 344 340 334 335 340 339 333 330 335 334 333 332 327 323 321 321 320 318 319 320
329 330 330 330 331 331 334 337 338 336 336 334 336 339 341 340 340 340 340 339 343 342 342 344 344 342 337 341 344 345 344 340 337 336 337 334 334 334 334 330 330 322 322 322 321 318 317 318 319
330 330 329 330 331 331 334 334 336 336 334 335 335 337 341 341 342 342 344 342 342 343 345 344 345 346 345 345 344 344 344 342 340 336 336 333 328 331 331 329 323 323 323 322 321 318 319 319 319
330 329 329 330 331 332 331 334 335 336 335 335 336 337 337 341 343 344 344 346 347 346 346 346 349 349 349 349 344 338 341 338 335 334 333 332 329 330 330 327 323 323 323 323 321 319 319 319 318
329 329 330 330 331 331 333 334 334 332 333 335 337 337 339 340 343 345 346 346 347 347 346 347 341 349 348 345 340 341 336 336 334 333 332 329 328 331 327 325 324 323 323 322 320 320 319 318 318
330 332 332 332 331 331 332 336 335 333 334 335 337 335 337 341 343 346 346 346 345 347 346 337 344 344 336 341 338 334 336 336 333 330 329 330 334 330 326 325 324 324 323 322 321 320 319 319 317
332 333 332 332 332 331 331 334 335 334 334 332 332 336 336 334 344 345 347 344 344 346 348 342 337 342 342 339 336 337 336 335 333 334 334 336 335 331 326 325 325 324 323 321 320 320 319 317 317
332 333 333 332 332 331 329 330 333 333 333 332 331 340 340 339 344 346 345 343 344 346 348 347 344 343 337 340 336 335 336 333 328 330 333 330 332 329 326 325 323 324 322 320 320 319 316 317 318
330 330 332 333 332 331 331 330 332 332 332 332 334 335 338 342 344 342 345 344 344 345 347 347 345 344 336 340 340 339 340 340 337 335 336 332 329 327 325 325 324 322 320 320 318 316 317 316 315
329 332 332 331 331 331 330 331 331 333 334 333 334 337 338 341 345 347 343 344 344 345 345 345 344 344 340 340 341 340 336 333 335 333 332 329 330 328 326 325 324 321 321 319 314 316 315 314 313
332 333 332 331 330 330 332 332 333 334 336 336 337 339 339 340 343 342 341 336 345 345 345 345 344 343 338 337 337 340 339 338 334 332 327 327 325 324 322 323 320 320 319 316 314 313 312 313 313
330 330 329 328 329 330 331 335 336 336 336 336 336 336 335 334 333 337 333 344 343 343 345 344 343 337 338 337 334 337 332 331 334 327 324 322 322 322 321 320 319 318 316 315 313 314 313 313 313
328 328 329 331 332 332 334 334 338 335 336 334 334 332 332 333 334 333 334 337 336 333 338 341 338 336 341 331 324 326 335 334 329 324 323 322 323 323 321 319 318 316 316 313 314 312 313 313 312
333 333 332 333 333 337 335 332 337 335 332 330 329 330 330 330 332 331 334 333 330 332 332 339 338 338 335 328 328 323 322 324 322 321 322 323 323 322 320 319 317 316 313 314 313 313 311 312 312
332 333 335 334 334 335 332 333 335 331 328 328 328 328 328 328 328 332 331 332 333 333 332 336 340 340 340 340 338 335 332 330 325 324 322 324 321 320 319 317 316 315 313 314 312 312 311 311 310
332 335 334 334 337 335 334 334 332 331 330 329 329 329 329 330 331 331 333 333 332 332 333 335 334 333 333 334 332 331 330 329 323 325 323 321 321 320 318 316 314 314 313 312 312 310 309 309 310
333 334 334 337 337 335 332 333 332 331 330 329 329 329 330 330 330 332 332 329 329 328 332 333 330 328 327 329 330 329 329 327 323 323 321 321 320 317 317 314 315 313 311 311 311 309 310 309 309
332 333 336 335 338 335 330 333 332 332 331 331 330 329 330 330 330 330 332 331 332 331 328 329 329 328 327 327 327 328 326 323 320 322 321 319 317 316 314 313 314 311 311 310 310 310 310 309 308
336 334 334 331 333 332 329 333 332 332 333 333 329 331 331 330 329 328 328 328 328 328 328 328 328 327 327 326 326 324 323 321 322 321 318 316 314 312 312 313 311 311 311 310 310 309 309 309 309
332 336 337 333 333 333 334 332 330 330 330 331 331 330 329 329 328 328 328 327 328 328 329 329 328 328 327 326 324 322 322 322 320 317 316 313 312 311 311 310 308 309 310 310 309 309 308 310 310
Wind_Speed
17 9 11 9 6 6 16 13 18 19 17 14 10 15 19 20 12 6 16 17 17 11 13 12 11 10 9 9 8 7 7 7 7 7 8 9 9 11 11 12 14 15 15 15 15 14 14 14 13
21 11 16 11 7 10 14 18 18 13 13 13 10 2 26 18 19 25 16 15 16 9 14 13 11 9 8 8 7 5 5 5 5 6 7 8 9 10 11 12 13 14 16 16 16 16 16 15 14
17 6 10 4 6 13 14 15 14 16 11 18 19 24 19 14 18 16 15 16 15 9 12 11 9 8 7 7 5 4 3 4 4 5 6 7 8 10 11 11 13 14 15 16 17 18 18 18 16
8 14 16 10 17 14 14 12 18 20 16 6 21 13 17 12 18 15 16 17 11 16 14 7 9 8 7 6 5 3 2 3 4 4 5 6 7 8 8 10 12 14 16 17 18 19 19 19 18
21 6 4 9 18 15 12 20 12 14 16 19 23 20 17 14 16 16 15 12 13 19 9 8 9 8 7 6 5 3 2 2 2 3 4 5 6 7 8 8 11 14 15 16 18 19 20 20 20
22 12 8 4 9 14 16 19 17 15 15 19 24 24 17 14 14 14 14 11 14 11 5 9 9 8 7 6 4 3 2 1 1 3 4 4 5 8 10 10 10 16 18 18 18 17 20 21 22
17 8 6 9 12 18 2 13 4 21 20 26 22 18 14 17 14 14 14 12 12 10 7 5 8 7 5 4 3 4 4 3 3 4 4 3 4 10 10 13 13 21 20 22 22 18 19 21 25
11 5 10 4 12 4 9 17 16 22 13 11 16 6 18 17 15 14 13 11 11 10 10 2 2 4 4 6 3 5 6 4 3 2 2 4 4 9 7 12 16 17 18 23 19 18 19 23 22
10 4 11 5 7 7 20 23 12 22 23 12 18 20 19 20 17 16 12 11 11 9 10 10 8 7 5 12 11 5 7 6 5 4 2 3 5 7 8 14 15 14 21 20 20 22 25 23 19
9 2 13 10 14 14 14 8 6 22 20 9 15 23 20 18 17 15 15 14 17 13 9 7 3 8 3 7 12 14 6 5 12 4 0 4 2 3 6 9 15 14 18 19 17 21 22 22 21
9 5 8 7 10 24 20 23 17 28 6 19 18 21 19 17 16 13 15 11 18 12 9 7 12 12 9 7 8 11 12 17 19 11 6 5 4 5 4 7 9 15 13 17 19 20 18 21 24
8 6 9 11 8 8 14 26 21 20 15 28 19 23 22 18 15 11 16 8 18 10 9 5 9 9 8 10 11 15 19 15 15 7 5 3 1 4 9 11 14 13 18 17 19 28 23 21 21
10 7 2 4 4 5 4 5 23 16 9 27 14 17 23 22 17 14 8 9 10 5 9 6 7 7 11 11 12 12 14 14 12 4 5 5 11 12 13 13 14 15 14 17 22 20 20 23 22
2 4 4 1 8 0 6 17 24 10 5 16 1 15 10 17 18 16 12 10 9 6 4 1 2 8 7 11 14 15 8 10 10 7 8 12 15 18 14 13 12 14 17 20 24 20 21 22 23
5 6 10 8 5 7 3 9 12 35 24 4 20 21 4 22 19 16 12 11 10 8 7 5 6 7 14 11 13 6 2 7 6 8 12 13 17 15 17 16 13 14 20 27 21 20 22 21 21
13 6 7 4 4 5 5 11 16 18 20 17 13 11 10 16 21 18 14 12 11 7 10 7 5 8 8 5 7 4 7 10 12 15 16 15 10 6 15 20 20 20 25 21 20 21 21 24 28
5 7 14 7 2 6 7 8 14 19 24 7 9 26 11 29 20 18 13 12 10 8 6 5 6 5 8 7 5 6 8 9 9 14 17 16 13 15 14 22 18 22 21 20 21 22 25 33 25
2 12 10 1 4 9 12 17 16 14 6 8 13 15 17 48 20 17 12 14 14 10 10 6 1 5 7 8 10 5 9 11 10 14 11 21 13 18 16 21 20 20 23 21 23 28 29 24 21
8 8 13 11 6 5 12 16 3 5 9 8 9 10 7 3 20 23 15 11 9 10 10 9 7 7 5 2 5 10 8 10 10 12 3 13 17 16 22 22 17 26 23 21 26 27 23 23 25
8 16 13 10 15 9 13 13 9 11 8 5 9 4 7 3 20 17 2 11 10 8 7 6 7 6 5 1 6 10 13 11 11 11 11 14 14 15 15 20 25 19 24 27 21 20 26 28 26
11 8 12 15 14 16 13 13 3 6 8 4 2 9 6 6 19 21 24 14 18 15 9 7 5 6 5 4 8 10 12 11 12 3 14 8 19 23 20 22 20 21 26 24 22 23 20 18 17
5 9 13 15 12 12 1 10 13 9 23 11 6 7 4 6 12 19 5 17 14 13 16 8 4 4 2 6 4 8 12 11 10 14 13 20 22 16 14 17 20 25 26 25 21 18 21 21 22
13 15 14 12 12 14 11 9 7 14 12 17 9 3 2 5 10 3 10 7 31 7 7 9 4 6 9 7 7 8 7 12 16 14 17 18 11 13 21 20 23 26 28 27 21 22 22 20 20
12 20 17 14 7 3 14 8 9 5 3 5 12 10 8 10 11 8 3 6 13 15 7 9 7 6 5 9 11 13 13 15 15 14 20 14 18 20 20 23 25 26 30 22 23 22 24 21 20
8 11 7 3 5 5 9 8 8 9 11 11 10 12 12 15 17 12 7 3 7 11 8 1 2 2 7 9 10 9 11 16 11 11 15 20 23 24 18 24 23 25 25 22 23 23 20 17 18
9 9 8 11 9 10 16 8 8 11 11 10 10 15 15 20 18 14 24 24 11 37 6 5 7 5 7 10 8 10 12 11 14 19 21 23 17 20 22 23 24 25 22 22 22 19 19 17 17
5 8 15 8 2 1 6 14 14 5 6 9 18 21 22 20 14 14 10 12 26 18 9 5 6 9 11 11 13 15 11 14 16 18 23 20 23 25 19 26 21 22 23 24 19 19 17 16 15
6 10 5 6 3 8 12 7 5 11 15 15 18 19 20 20 24 22 13 10 7 10 14 6 10 13 15 16 12 13 17 19 23 20 24 23 23 23 27 22 23 23 24 18 16 16 15 14 13
22 1 6 3 9 8 8 6 18 10 10 10 12 18 17 20 18 20 21 22 17 15 13 18 22 21 15 14 17 18 19 19 16 24 25 25 27 30 27 22 26 26 18 16 15 14 14 12 12
14 5 7 4 6 8 10 4 11 7 8 10 13 16 17 13 14 13 15 24 25 23 21 22 23 18 17 21 17 19 13 17 25 26 26 29 30 26 25 28 25 22 11 12 11 14 12 13 13
Wind_Direction
339 332 356 276 315 257 93 87 63 74 62 61 53 127 79 141 173 171 149 132 128 146 145 144 142 137 135 128 117 103 88 77 70 66 64 63 61 54 53 51 46 39 34 29 26 22 16 11 5
329 296 273 307 233 95 83 76 66 94 126 120 117 83 78 71 92 125 126 131 137 153 156 151 150 142 137 127 118 106 91 82 75 71 71 70 66 60 57 54 49 40 34 27 20 13 8 3 359
326 317 266 60 259 91 88 95 104 79 53 114 83 59 80 97 110 127 138 143 132 132 149 149 155 152 147 140 130 125 116 101 96 90 84 66 65 60 58 56 49 40 32 24 18 12 6 358 353
308 327 344 333 95 70 98 110 122 104 89 57 94 78 79 63 120 125 133 145 146 144 179 177 168 164 164 159 162 159 154 135 114 93 76 73 72 68 63 53 42 31 22 15 10 8 2 356 348
281 91 82 278 104 97 96 95 93 99 76 90 100 99 87 90 108 124 133 142 152 154 178 188 180 180 181 181 184 189 183 130 97 82 96 96 85 68 52 35 31 20 11 5 359 356 353 352 345
282 90 209 281 12 83 72 82 72 102 115 87 87 84 98 118 123 133 137 145 136 158 196 176 182 191 195 202 203 213 197 144 141 157 142 119 79 41 25 9 14 5 357 351 346 343 343 341 340
292 233 160 151 81 67 226 89 200 79 82 76 77 106 136 121 130 136 142 145 151 140 186 235 193 196 209 225 239 240 214 198 161 169 160 109 44 26 13 1 357 355 353 352 345 343 346 343 344
317 320 296 69 107 172 131 77 8 87 95 113 110 146 119 130 134 137 140 146 157 160 155 191 204 193 250 211 229 259 229 214 200 190 140 74 60 27 357 345 344 345 350 354 353 348 345 338 338
283 278 28 274 86 71 101 99 237 70 19 93 131 124 130 137 136 135 140 149 162 160 166 186 224 222 299 233 269 286 255 222 232 235 158 44 359 19 5 328 329 347 350 350 346 342 336 333 331
262 315 185 171 144 120 141 134 127 117 309 348 111 121 135 141 139 143 162 172 165 157 171 181 174 176 203 242 254 287 271 221 258 201 292 60 278 319 325 346 339 351 341 346 338 330 327 328 324
275 340 4 82 37 140 178 116 174 132 129 226 242 141 146 150 150 168 177 141 167 144 157 187 214 210 212 240 285 253 242 303 339 233 214 215 305 34 299 314 302 322 321 311 318 316 309 286 290
278 63 338 48 60 301 60 142 144 117 194 190 214 154 151 164 174 173 141 145 111 132 161 202 228 268 257 240 260 298 315 311 338 173 165 109 48 295 284 298 284 314 307 312 310 322 311 307 294
269 105 307 100 263 287 147 220 147 141 150 227 136 156 167 175 166 168 149 122 142 162 154 196 203 251 284 279 282 282 312 339 22 62 180 306 336 322 299 305 331 301 318 311 297 322 312 301 309
224 352 327 324 284 337 296 49 346 340 304 188 210 176 161 169 165 166 167 154 145 135 134 146 290 256 288 293 283 292 306 295 330 285 301 301 320 322 313 309 301 329 311 292 314 315 312 307 308
270 255 229 206 193 297 41 70 126 280 307 119 213 96 296 246 162 156 161 164 161 180 162 196 222 224 264 256 290 313 267 270 266 286 272 286 314 314 313 328 318 317 299 309 327 310 306 307 290
254 7 290 318 231 206 252 132 194 216 242 237 165 211 97 277 163 154 161 161 158 161 182 172 157 244 292 246 268 221 271 282 286 280 282 310 322 316 307 303 318 302 310 315 317 317 307 294 305
71 324 321 283 102 346 292 200 177 222 247 325 301 150 72 224 155 148 166 179 160 168 209 201 180 196 261 273 265 269 274 309 327 309 324 307 242 295 287 292 300 304 313 314 314 299 298 309 307
259 188 221 148 189 14 330 323 153 179 68 332 295 151 164 215 167 140 181 180 159 169 175 188 213 219 244 222 284 284 256 270 330 335 263 287 289 307 281 291 317 303 305 312 301 301 308 309 305
307 307 28 11 18 331 337 298 291 317 22 337 354 305 293 246 140 146 191 174 148 170 173 179 209 231 279 209 296 305 293 315 325 340 288 285 305 286 302 317 296 304 307 294 303 310 304 299 299
301 342 25 342 338 318 302 303 318 65 47 10 340 298 275 253 121 160 150 162 177 185 173 188 192 238 280 172 304 268 298 323 328 309 289 319 296 301 301 289 295 307 291 298 313 295 302 301 300
40 320 349 321 318 296 300 259 191 90 119 110 29 10 349 350 164 187 188 167 210 179 188 188 212 216 242 222 238 294 310 320 323 280 322 294 298 301 312 300 313 292 294 305 294 301 300 304 307
66 15 317 306 311 302 237 53 83 48 15 345 130 139 123 263 264 118 57 214 200 214 161 179 206 234 263 287 288 275 293 311 292 303 285 287 303 317 310 310 290 290 292 309 307 296 300 294 292
333 324 296 283 285 284 26 319 84 73 76 253 120 92 183 247 125 67 237 164 6 248 5 197 255 231 215 260 296 294 288 258 269 281 286 310 326 283 306 295 289 289 299 310 296 305 302 294 296
353 311 299 287 318 75 263 272 120 133 83 24 22 13 350 310 115 298 149 237 305 262 155 195 247 250 264 302 307 306 295 286 293 310 318 312 288 311 303 293 294 297 308 294 299 303 300 297 293
289 335 317 320 213 155 247 55 350 52 32 21 22 356 336 318 311 143 304 8 113 213 62 52 179 284 286 288 278 280 276 285 316 301 291 284 308 314 288 294 303 302 301 295 301 307 304 301 296
9 357 1 331 357 329 15 52 360 348 49 4 1 353 356 2 22 21 12 40 75 351 3 346 327 344 329 315 300 271 285 291 301 305 303 319 320 300 306 299 301 296 302 306 311 311 307 302 301
55 354 17 318 142 262 246 112 208 354 19 2 3 358 0 3 350 58 21 360 307 283 280 329 317 323 330 313 291 299 273 282 318 309 314 314 309 310 294 302 297 304 314 315 310 308 309 304 305
356 358 68 287 21 328 351 57 349 15 20 24 17 355 11 21 37 18 33 39 51 15 360 23 16 359 355 336 292 280 284 301 325 321 315 317 314 307 310 305 307 313 318 314 309 306 309 306 308
295 259 306 343 19 333 327 41 3 340 3 41 6 40 14 3 1 15 35 24 24 20 5 346 345 343 334 321 312 309 313 335 317 318 321 315 318 314 311 317 318 314 315 312 313 321 320 311 315
5 12 360 3 3 329 306 91 8 35 10 55 22 31 30 17 355 360 26 40 32 23 19 15 9 358 341 338 340 341 337 322 325 319 315 321 317 320 326 319 323 323 319 319 332 339 336 328 318